Natchez, MS

3:23 PM CST on November 12, 2019 (GMT -0600)
Hardy-Anders-Adams County

Weather History for KHEZ - October, 2019

Change the Weather History Date:

Tuesday, October 15, 2019

  Actual Average Record
Temperature  
Mean Temperature 72 °F -  
Max Temperature 77 °F 80 °F 91 °F (2015)
Min Temperature 68 °F 54 °F 37 °F (1937)
Cooling Degree Days 8    
Growing Degree Days 22 (Base 50)    
Moisture  
Dew Point 70 °F    
Average Humidity 96    
Maximum Humidity 100    
Minimum Humidity 90    
Precipitation  
Precipitation 0.33 in - - ()
Sea Level Pressure  
Sea Level Pressure 29.94 in    
Wind  
Wind Speed 5 mph (SSE)    
Max Wind Speed 10 mph    
Max Gust Speed -    
Visibility 9 miles    
Events Rain    
Averages and records for this station are not official NWS values.
T = Trace of Precipitation, MM = Missing Value Source: NWS Daily Summary

Daily Weather History Graph

Daily Weather History Graph

Search for Another Location

Airport or City:

Astronomy

Oct. 15, 2019 Rise Set
Actual Time 7:08 AM CDT 6:33 PM CDT
Civil Twilight 6:43 AM CDT 6:57 PM CDT
Nautical Twilight 6:15 AM CDT 7:26 PM CDT
Astronomical Twilight 5:47 AM CDT 7:54 PM CDT
Moon 7:58 PM CDT (10/15) 8:35 AM CDT (10/15)
Length of Visible Light 12h 14m
Length of Day
11h 25m
Full, 97% of the Moon is Illuminated
Oct 15
Full
Oct 21
Last Quarter
Oct 27
New
Nov 4
First Quarter
Nov 12
Full

Hourly Weather History & Observations

Time (CDT) Temp. Dew Point Humidity Pressure Visibility Wind Dir Wind Speed Gust Speed Precip Events Conditions
12:11 AM 68.0 °F 66.2 °F 94% 30.05 in 3.0 mi ENE 3.5 mph - 0.03 in Rain Light Rain
12:56 AM 68.0 °F 66.9 °F 96% 30.04 in 10.0 mi ESE 4.6 mph - 0.04 in Rain Light Rain
1:56 AM 68.0 °F 66.9 °F 96% 30.02 in 9.0 mi ESE 4.6 mph - 0.00 in Rain Light Rain
2:49 AM 68.0 °F 66.2 °F 94% 30.02 in 10.0 mi SE 3.5 mph - 0.00 in   Overcast
2:56 AM 68.0 °F 66.9 °F 96% 30.01 in 10.0 mi ESE 4.6 mph - 0.00 in   Overcast
3:09 AM 68.0 °F 66.2 °F 94% 30.00 in 10.0 mi ESE 5.8 mph - N/A   Overcast
3:26 AM 68.0 °F 66.2 °F 94% 30.00 in 10.0 mi SE 4.6 mph - 0.00 in   Overcast
3:56 AM 68.0 °F 66.9 °F 96% 29.99 in 10.0 mi SE 6.9 mph - 0.00 in   Overcast
4:37 AM 68.0 °F 66.2 °F 94% 29.99 in 10.0 mi SSE 6.9 mph - N/A   Overcast
4:56 AM 68.0 °F 66.9 °F 96% 29.99 in 9.0 mi SSE 9.2 mph - 0.00 in Rain Light Rain
5:56 AM 68.0 °F 66.9 °F 96% 29.99 in 10.0 mi SSE 5.8 mph - 0.00 in   Overcast
6:56 AM 69.1 °F 68.0 °F 96% 29.97 in 7.0 mi SSE 8.1 mph - N/A   Overcast
7:56 AM 70.0 °F 69.1 °F 97% 29.96 in 3.0 mi SSE 9.2 mph - N/A   Overcast
8:56 AM 71.1 °F 70.0 °F 96% 29.98 in 5.0 mi South 8.1 mph - N/A   Overcast
9:40 AM 71.6 °F 71.6 °F 100% 29.99 in 7.0 mi South 10.4 mph - N/A   Overcast
9:56 AM 73.0 °F 71.1 °F 93% 29.99 in 6.0 mi South 9.2 mph - N/A   Overcast
10:56 AM 75.0 °F 72.0 °F 90% 29.98 in 8.0 mi SSW 5.8 mph - N/A   Overcast
11:16 AM 75.2 °F 73.4 °F 94% 29.98 in 8.0 mi SW 9.2 mph - N/A   Overcast
11:56 AM 75.9 °F 73.9 °F 94% 29.96 in 6.0 mi SSW 6.9 mph - 0.04 in   Overcast
12:56 PM 77.0 °F 73.9 °F 90% 29.95 in 10.0 mi WSW 6.9 mph - N/A   Overcast
1:51 PM 71.6 °F 69.8 °F 94% 29.93 in 10.0 mi NNE 5.8 mph - 0.02 in Rain Light Rain
1:56 PM 71.1 °F 69.1 °F 93% 29.93 in 10.0 mi NNE 6.9 mph - 0.02 in   Overcast
2:12 PM 69.8 °F 69.8 °F 100% 29.93 in 5.0 mi Calm Calm - 0.04 in Rain Light Rain
2:42 PM 71.6 °F 69.8 °F 94% 29.92 in 10.0 mi East 4.6 mph - 0.04 in   Overcast
2:51 PM 71.6 °F 69.8 °F 94% 29.91 in 10.0 mi East 4.6 mph - 0.04 in   Overcast
2:56 PM 71.1 °F 69.1 °F 93% 29.91 in 10.0 mi East 3.5 mph - 0.04 in   Overcast
3:56 PM 73.0 °F 70.0 °F 90% 29.86 in 10.0 mi ENE 5.8 mph - N/A   Scattered Clouds
4:56 PM 73.0 °F 71.1 °F 93% 29.87 in 10.0 mi ESE 4.6 mph - N/A   Mostly Cloudy
5:04 PM 73.4 °F 71.6 °F 94% 29.87 in 10.0 mi SE 5.8 mph - N/A   Mostly Cloudy
5:17 PM 73.4 °F 71.6 °F 94% 29.88 in 10.0 mi SE 5.8 mph - N/A   Overcast
5:38 PM 73.4 °F 71.6 °F 94% 29.87 in 10.0 mi SE 4.6 mph - 0.00 in Rain Light Rain
5:53 PM 73.4 °F 71.6 °F 94% 29.88 in 10.0 mi SSE 5.8 mph - 0.00 in Rain Light Rain
5:56 PM 73.0 °F 71.1 °F 93% 29.88 in 10.0 mi SSE 4.6 mph - 0.00 in Rain Rain
6:03 PM 73.4 °F 71.6 °F 94% 29.88 in 10.0 mi South 3.5 mph - 0.01 in Rain Light Rain
6:15 PM 71.6 °F 71.6 °F 100% 29.88 in 10.0 mi SSE 4.6 mph - 0.01 in Rain Light Rain
6:56 PM 72.0 °F 71.1 °F 97% 29.89 in 10.0 mi South 6.9 mph - 0.01 in Rain Light Rain
7:06 PM 71.6 °F 71.6 °F 100% 29.89 in 10.0 mi South 6.9 mph - 0.00 in Rain Light Rain
7:14 PM 71.6 °F 71.6 °F 100% 29.89 in 10.0 mi South 6.9 mph - 0.00 in Rain Light Rain
7:56 PM 72.0 °F 71.1 °F 97% 29.89 in 9.0 mi South 4.6 mph - 0.16 in Rain Light Rain
8:56 PM 72.0 °F 71.1 °F 97% 29.90 in 10.0 mi SW 3.5 mph - 0.01 in Rain Light Rain
9:32 PM 71.6 °F 71.6 °F 100% 29.91 in 10.0 mi South 3.5 mph - 0.01 in Rain Light Rain
9:48 PM 71.6 °F 71.6 °F 100% 29.91 in 10.0 mi Calm Calm - 0.01 in Rain Light Rain
9:56 PM 72.0 °F 71.1 °F 97% 29.91 in 10.0 mi Calm Calm - 0.01 in   Overcast
10:46 PM 71.6 °F 71.6 °F 100% 29.92 in 10.0 mi Calm Calm - N/A   Mostly Cloudy
10:56 PM 72.0 °F 71.1 °F 97% 29.91 in 9.0 mi SW 3.5 mph - N/A   Overcast
11:56 PM 72.0 °F 72.0 °F 100% 29.93 in 6.0 mi Calm Calm - N/A   Overcast